Theta_e
306 306 305 305 305 306 303 296 285 298 304 289 287 286 290 294 292 295 293 292 291 289 287 285 284 284 286 288 287 283 285 282 277 280 283 284 282 280 280 273 275 276 275 275
305 305 305 304 304 305 298 291 289 299 299 284 285 288 290 292 291 291 291 290 291 291 287 284 286 286 288 288 285 284 285 280 274 277 279 282 279 281 281 281 280 275 270 274
304 305 304 304 304 305 298 289 284 289 291 289 287 286 287 287 292 292 293 292 293 288 285 287 284 283 287 288 288 292 289 281 278 276 278 280 278 281 282 281 274 277 276 278
304 304 304 303 303 304 296 290 285 285 282 286 287 287 286 286 286 291 292 289 290 288 284 283 282 283 283 286 289 285 285 280 276 279 281 280 280 279 280 277 280 275 277 277
303 303 304 303 302 303 293 286 286 283 282 286 285 287 284 284 286 288 287 286 290 288 285 285 282 284 282 282 284 283 283 277 274 271 280 280 277 278 279 279 279 278 277 277
302 302 302 303 302 301 290 291 290 287 284 283 284 284 285 285 287 288 290 288 288 286 288 291 291 290 289 288 284 283 282 278 276 273 278 279 273 275 277 277 279 279 275 280
301 302 300 297 302 300 292 292 293 287 280 283 284 286 286 285 287 282 288 289 287 289 290 289 288 287 286 287 285 285 278 278 278 275 276 269 277 282 282 281 282 281 281 280
301 301 300 298 302 301 290 293 292 288 280 283 283 285 285 286 286 287 287 289 292 292 290 285 281 280 282 282 284 283 282 279 275 274 273 277 279 281 281 280 280 283 281 279
300 300 300 299 300 300 292 290 295 291 282 282 287 284 285 282 283 283 286 291 291 290 283 283 278 277 280 278 280 283 282 280 277 275 272 269 277 284 286 284 273 282 282 280
299 300 300 299 299 299 294 288 294 292 285 288 288 283 283 286 284 281 284 287 286 288 281 279 279 277 282 276 277 277 277 275 275 275 275 277 284 285 286 273 275 282 282 280
299 300 299 299 299 299 296 289 293 290 287 288 292 293 286 287 286 281 284 285 286 282 283 282 280 278 279 279 281 279 278 276 273 277 276 272 286 284 279 281 281 282 280 279
299 298 299 299 299 300 297 288 293 294 287 288 294 294 294 293 292 288 285 285 285 284 281 280 280 276 276 278 274 284 278 280 278 280 279 284 286 284 284 284 283 281 280 279
298 298 298 299 300 300 297 291 294 292 286 285 286 286 295 298 296 296 286 285 288 286 287 282 282 278 281 277 276 281 283 285 280 282 283 284 284 284 284 284 284 282 281 279
298 298 298 299 300 300 298 293 293 291 287 278 282 295 291 296 298 298 295 291 291 289 287 282 282 279 284 276 281 280 280 285 282 280 283 284 284 284 284 282 282 281 279 279
298 298 298 299 300 300 297 294 293 294 286 279 281 292 295 297 299 297 297 295 292 288 285 286 283 284 286 285 284 283 284 283 282 280 285 284 281 280 283 281 280 280 279 277
298 298 299 299 299 299 294 285 294 295 292 285 281 291 292 295 297 296 295 295 294 292 288 287 288 289 286 279 280 283 286 284 285 283 284 282 280 280 281 281 279 280 280 279
298 298 299 299 299 295 289 286 291 297 294 286 281 281 292 296 296 293 294 296 293 292 288 284 284 284 286 275 274 283 281 281 284 283 283 279 280 277 280 280 280 282 278 279
298 298 299 299 298 297 291 294 298 297 291 290 281 281 285 295 288 288 293 290 292 290 289 285 283 282 278 278 281 279 282 283 282 282 282 281 281 280 279 279 279 278 277 277
298 298 299 296 293 287 289 300 299 297 292 284 283 279 279 293 288 289 289 290 284 288 283 284 284 279 278 282 282 280 281 282 281 281 280 280 280 279 278 278 278 277 277 277
298 295 289 283 290 299 299 294 288 288 288 288 280 282 283 289 286 284 284 285 282 281 283 284 280 279 284 284 283 283 283 282 282 279 279 279 279 279 278 279 278 279 278 278
292 286 285 291 299 292 286 283 283 284 282 285 283 284 284 289 283 283 284 282 281 277 279 281 279 277 280 283 282 282 283 282 282 282 282 282 281 280 281 280 280 280 279 277
291 292 295 294 290 285 282 281 282 282 281 281 282 282 285 286 289 284 284 281 279 275 279 276 272 277 282 282 282 282 282 282 282 282 282 281 282 283 283 282 280 279 278 276
292 290 286 283 282 269 273 272 275 272 278 279 281 281 284 286 285 281 280 276 275 280 274 274 275 278 282 281 282 282 283 282 282 281 281 281 280 282 282 278 278 277 275 275
282 279 269 274 268 272 273 275 274 278 278 282 281 279 282 281 281 278 277 276 278 270 269 273 272 279 280 281 282 282 281 283 283 282 280 278 282 281 278 277 276 276 274 274
280 278 271 274 279 279 283 280 278 278 282 282 280 280 282 280 278 278 277 274 271 272 271 271 281 278 283 283 283 282 281 275 273 273 276 281 279 278 274 276 277 275 274 273
281 282 281 283 283 283 282 282 275 281 280 282 282 280 276 275 276 274 271 273 270 270 275 281 278 280 282 283 282 281 280 281 281 280 280 278 276 273 272 275 275 274 274 273
281 280 284 284 284 283 282 276 278 282 282 278 280 274 274 278 273 274 276 269 269 279 280 282 283 282 282 282 281 279 278 275 277 276 276 271 272 273 273 272 271 274 274 273
Wind_Speed
22 22 21 20 20 16 11 3 4 3 7 6 2 6 7 3 2 4 3 1 1 3 3 4 6 8 4 6 5 8 5 5 5 6 0 1 1 5 5 5 5 5 1 15
19 23 23 22 22 22 4 3 3 1 3 10 13 5 9 3 2 5 5 4 4 2 3 0 4 3 3 6 2 8 8 2 2 6 4 2 3 4 4 4 3 14 4 13
22 22 22 26 25 25 6 2 4 1 3 1 6 14 13 12 5 4 2 2 3 2 2 3 3 3 4 3 3 8 6 4 7 9 5 4 3 4 5 5 3 13 16 24
21 24 26 24 27 28 9 4 4 3 7 14 14 7 5 14 9 6 7 2 4 5 5 3 4 2 2 3 3 4 4 1 1 2 1 1 4 5 7 10 17 10 19 13
23 23 26 30 28 28 5 4 3 2 3 5 16 10 15 9 13 7 5 3 8 6 6 7 5 4 3 5 2 3 2 4 3 6 4 5 7 3 11 16 14 16 13 24
25 25 24 29 29 25 4 4 1 2 6 7 12 21 17 14 7 2 4 5 3 5 6 6 6 8 5 6 9 4 4 5 3 6 3 5 9 10 13 4 6 6 9 11
27 27 24 18 29 25 3 6 4 3 3 8 16 18 16 6 14 10 1 7 5 2 3 4 6 5 3 5 4 5 6 6 3 2 1 6 7 4 6 8 8 9 11 3
27 26 26 23 33 27 2 4 4 4 3 9 3 11 12 14 4 3 9 6 4 6 5 4 4 5 4 2 4 5 4 5 3 2 3 8 7 4 5 6 7 4 4 8
28 27 25 29 27 29 5 3 3 3 4 5 7 6 6 6 10 5 4 1 2 4 4 3 5 6 4 4 0 4 5 4 4 3 3 6 7 4 5 5 6 5 7 11
28 28 28 29 29 26 7 2 4 5 1 1 3 5 8 6 5 3 5 7 4 3 4 3 5 4 5 7 8 6 4 1 7 4 5 8 8 6 4 6 8 5 7 11
28 29 28 29 29 30 12 3 4 5 2 1 3 3 2 5 6 5 4 5 1 2 5 5 4 4 6 3 5 7 8 8 4 4 6 10 5 5 6 5 2 5 5 7
26 26 29 30 30 27 14 3 3 4 3 1 1 4 8 6 3 9 3 5 6 7 4 3 3 1 1 4 4 2 4 8 8 10 9 1 6 3 3 5 5 5 7 7
28 26 27 26 23 21 15 4 5 4 2 5 5 6 3 1 4 4 5 2 4 2 4 5 3 2 3 5 6 4 3 3 4 2 5 6 6 3 3 5 6 5 6 12
30 29 26 24 23 22 18 4 3 6 4 3 5 2 6 10 9 9 5 4 4 5 3 3 3 3 4 4 4 4 5 5 5 5 6 4 9 9 6 5 5 6 9 9
31 31 30 26 24 22 13 2 4 4 5 4 4 1 7 6 7 12 11 6 5 3 2 2 5 3 3 1 1 5 6 7 6 8 5 3 3 2 7 8 7 9 11 11
32 31 29 26 24 23 6 4 2 7 4 3 3 4 4 2 5 10 9 8 3 3 3 2 2 4 4 3 3 5 5 2 1 3 2 3 1 2 3 5 6 8 10 10
32 30 28 26 25 13 4 4 6 14 4 2 2 3 2 2 4 2 4 2 3 3 3 4 4 3 5 3 4 4 3 5 3 3 5 2 2 3 5 4 6 8 6 8
32 29 27 25 27 9 2 4 19 14 4 3 3 3 1 2 2 2 2 2 3 2 2 1 3 2 2 4 5 1 3 5 3 5 2 1 4 6 5 5 8 9 9 10
32 29 27 16 3 2 3 19 11 2 3 4 3 4 3 2 2 3 2 2 2 1 2 2 4 1 5 7 6 5 9 6 6 5 5 4 3 6 7 8 8 10 9 10
34 20 5 3 6 18 21 5 3 2 2 2 3 0 3 2 1 2 3 0 2 2 3 4 3 4 4 4 4 3 8 7 11 6 3 3 3 6 7 9 7 8 10 10
7 3 3 5 21 4 2 4 5 4 4 5 3 4 4 2 2 3 3 3 2 3 3 4 2 4 4 3 4 3 7 8 6 5 3 6 5 7 9 8 8 9 11 11
7 10 10 4 2 3 3 3 4 5 5 3 5 5 5 2 4 3 1 1 2 3 1 3 3 4 2 4 4 4 6 7 6 4 5 5 6 6 7 9 9 10 11 12
5 6 4 4 0 5 5 5 3 1 4 4 3 4 3 2 3 3 3 3 3 2 2 4 5 2 4 4 5 6 5 6 6 5 5 6 5 7 8 9 8 11 11 10
4 4 3 3 2 4 4 4 4 3 4 6 5 3 3 1 3 1 4 2 2 2 0 6 3 3 5 5 3 6 4 4 6 7 6 7 7 6 7 8 10 11 10 10
4 5 2 0 3 2 1 2 1 2 3 6 4 4 3 2 4 1 4 2 3 5 5 3 2 2 5 5 3 5 5 5 4 3 6 7 6 7 6 6 8 9 10 10
3 4 2 2 1 2 1 0 0 1 2 3 4 3 3 1 4 3 4 6 6 5 1 0 1 1 2 4 4 5 5 6 7 5 4 4 5 6 6 7 7 8 10 10
4 3 2 1 2 2 1 2 2 1 4 2 2 4 3 2 3 1 3 5 3 3 2 2 2 3 4 5 6 6 6 5 5 4 5 4 5 7 7 8 3 7 7 7
Wind_Direction
208 202 199 190 177 169 163 189 182 208 150 167 126 211 196 314 132 182 261 5 285 193 132 151 206 209 240 347 150 159 189 138 180 200 52 299 139 189 150 132 249 242 178 262
209 203 198 192 183 164 135 197 140 232 192 177 212 174 216 236 260 190 179 219 226 217 156 11 194 186 45 14 175 164 182 173 49 347 353 11 203 188 162 104 80 259 197 268
205 194 206 195 188 170 140 146 160 189 212 214 203 200 209 214 187 281 218 223 162 138 200 244 212 175 11 357 67 48 86 143 176 218 202 141 182 196 184 164 196 273 248 270
203 200 188 219 192 174 147 188 203 192 177 206 206 173 190 204 211 209 173 228 183 169 187 186 186 81 25 20 22 63 93 172 90 264 162 213 230 200 195 209 242 226 268 249
208 202 195 194 205 176 147 180 170 351 169 163 198 204 208 214 201 176 182 196 194 191 195 183 182 160 195 203 9 98 12 140 102 320 285 241 264 218 237 247 259 260 272 271
214 208 188 201 197 174 136 164 152 123 185 165 177 209 210 209 137 193 188 186 223 220 242 219 223 199 202 171 160 167 106 105 114 259 301 323 293 221 225 219 215 208 234 251
215 205 188 202 199 181 139 151 125 154 178 179 201 208 208 198 197 201 255 211 192 259 103 80 51 66 66 162 140 139 139 138 146 230 216 257 254 214 202 212 236 219 253 219
212 203 187 184 196 178 126 137 139 144 155 194 153 202 195 211 234 228 228 250 210 152 60 53 11 357 12 222 184 145 121 139 138 155 206 300 286 204 186 186 284 224 197 124
207 202 189 187 204 181 165 112 126 100 114 207 189 185 167 174 202 222 212 35 140 123 110 131 200 198 191 234 273 60 109 53 129 141 216 248 239 192 163 129 295 172 149 156
202 194 179 190 194 200 156 161 127 97 118 294 181 175 185 137 143 171 155 164 180 141 125 146 212 223 198 170 178 171 135 115 206 174 227 271 239 159 141 100 245 169 167 166
194 187 181 189 191 193 175 145 164 138 147 315 343 310 182 136 174 154 195 114 186 85 165 184 183 209 220 168 176 172 163 161 190 185 220 261 135 83 179 205 47 149 143 168
187 184 183 188 193 187 161 126 136 100 136 192 138 235 245 264 289 184 212 180 165 168 153 190 143 183 100 168 231 157 202 182 182 188 209 236 216 177 153 161 152 182 161 158
183 185 189 184 183 183 169 101 124 113 180 322 281 250 216 232 239 269 156 271 154 170 168 157 163 171 150 180 235 171 256 168 198 118 233 226 233 219 206 180 191 163 157 152
180 181 188 184 181 176 166 137 143 123 109 194 279 112 249 266 223 231 236 178 112 106 98 115 143 174 169 214 233 177 195 138 176 272 263 303 235 218 180 169 144 128 135 161
177 177 181 181 180 177 163 100 179 152 140 200 244 13 231 241 216 222 210 164 123 110 101 148 196 186 148 175 321 230 184 178 174 221 206 211 255 282 157 160 178 165 150 149
172 173 174 177 174 166 142 143 212 184 110 37 298 341 257 273 241 191 181 177 102 97 135 178 202 213 132 182 241 245 189 178 151 221 104 98 55 104 118 159 166 164 163 165
165 166 169 169 168 156 190 162 166 157 97 138 296 272 259 230 182 204 83 49 109 130 185 196 172 200 147 166 213 235 215 170 165 131 125 18 226 234 169 141 138 145 114 138
159 160 158 159 151 132 314 337 148 129 110 216 243 254 320 215 131 101 65 116 117 175 153 122 158 101 138 250 241 196 168 143 142 167 28 88 112 109 128 129 129 134 142 146
151 149 143 132 140 124 199 129 96 77 147 196 193 191 192 219 103 91 74 87 160 70 171 211 129 183 211 225 200 190 187 179 171 128 90 116 144 152 145 142 146 143 151 153
136 130 126 139 163 128 125 153 104 20 352 277 220 162 162 155 93 85 101 150 127 176 199 127 182 239 252 225 205 174 165 147 137 122 162 161 157 168 168 172 163 155 154 148
126 121 146 127 136 101 167 140 150 150 216 190 192 176 132 209 120 140 207 179 181 133 213 165 227 265 236 115 107 92 138 149 167 115 140 174 173 171 168 160 154 148 148 148
171 110 94 91 97 169 211 138 143 192 212 178 148 164 185 149 114 99 308 77 51 194 135 87 261 251 110 117 112 117 137 144 156 147 149 162 156 158 152 150 145 144 138 134
113 65 99 144 238 61 150 179 237 176 173 192 175 112 128 97 68 67 112 109 187 119 81 227 226 256 127 126 120 119 138 144 138 134 131 139 127 126 138 132 134 134 139 144
84 128 68 143 290 249 181 181 185 231 121 126 106 69 114 101 68 125 105 237 90 66 170 234 253 198 163 138 133 128 168 154 149 143 131 137 155 136 132 139 143 141 143 144
67 64 107 131 203 183 261 134 42 299 146 115 86 59 86 64 97 26 112 94 241 205 225 227 177 228 140 146 143 136 120 106 96 108 136 150 124 137 133 141 143 137 135 142
73 50 80 314 133 98 71 111 210 260 137 81 63 124 99 202 138 113 194 149 219 245 206 116 116 114 120 127 117 111 115 124 132 139 136 118 133 135 130 115 127 137 145 148
51 29 342 345 48 49 94 163 244 246 71 121 133 78 185 104 65 103 179 198 221 156 101 46 71 123 124 117 109 108 115 116 123 116 115 106 110 113 116 125 112 127 131 131